| time (UTC) | temp C | wind direction | speed KPH | gust KPH | rain 1hr cm | rain 24hr cm | rain mn cm | humidity % | barometer mb |
| 20260506020025 | 18 | 360 | 1.6 | 9.7 | 0.00 | 0.00 | 0.00 | 76 | 1007.2 |
| 20260506014512 | 19 | 360 | 4.8 | 9.7 | 0.00 | 0.00 | 0.00 | 75 | 1007.3 |
| 20260506013039 | 19 | 360 | 3.2 | 8.0 | 0.00 | 0.00 | 0.00 | 74 | 1006.9 |
| 20260506011511 | 19 | 348 | 3.2 | 14.5 | 0.00 | 0.00 | 0.00 | 73 | 1006.5 |
| 20260506010051 | 20 | 360 | 4.8 | 12.9 | 0.00 | 0.00 | 0.00 | 72 | 1006.2 |
| 20260506004539 | 20 | 342 | 4.8 | 19.3 | 0.00 | 0.00 | 0.00 | 72 | 1005.9 |
| 20260506003010 | 21 | 26 | 3.2 | 14.5 | 0.00 | 0.00 | 0.00 | 71 | 1005.2 |
| 20260506001538 | 21 | 337 | 8.0 | 17.7 | 0.00 | 0.00 | 0.00 | 70 | 1005.3 |
| 20260506000032 | 22 | 360 | 4.8 | 19.3 | 0.00 | 0.00 | 0.00 | 70 | 1005.6 |
| 20260505234521 | 23 | 360 | 8.0 | 19.3 | 0.00 | 0.00 | 0.00 | 69 | 1005.5 |
| 20260505233110 | 23 | 360 | 8.0 | 19.3 | 0.00 | 0.00 | 0.00 | 67 | 1005.2 |
| 20260505231552 | 25 | 15 | 4.8 | 16.1 | 0.00 | 0.00 | 0.00 | 64 | 1004.8 |
| 20260505230035 | 25 | 321 | 4.8 | 12.9 | 0.00 | 0.00 | 0.00 | 64 | 1004.7 |
| 20260505224519 | 26 | 308 | 4.8 | 12.9 | 0.00 | 0.00 | 0.00 | 62 | 1004.7 |
| 20260505223059 | 27 | 296 | 4.8 | 16.1 | 0.00 | 0.00 | 0.00 | 60 | 1004.3 |
| 20260505223003 | 27 | 295 | 4.8 | 16.1 | 0.00 | 0.00 | 0.00 | 60 | 1004.4 |
| 20260505221553 | 28 | 291 | 3.2 | 12.9 | 0.00 | 0.00 | 0.00 | 57 | 1004.0 |
| 20260505220039 | 28 | 327 | 6.4 | 14.5 | 0.00 | 0.00 | 0.00 | 56 | 1004.0 |
| 20260505214523 | 29 | 327 | 3.2 | 16.1 | 0.00 | 0.00 | 0.00 | 56 | 1003.8 |
| 20260505213011 | 30 | 300 | 4.8 | 17.7 | 0.00 | 0.00 | 0.00 | 51 | 1003.9 |
| 20260505211545 | 30 | 360 | 3.2 | 19.3 | 0.00 | 0.00 | 0.00 | 49 | 1003.9 |
| 20260505210033 | 30 | 360 | 6.4 | 16.1 | 0.00 | 0.00 | 0.00 | 48 | 1004.1 |
| 20260505204518 | 31 | 279 | 4.8 | 12.9 | 0.00 | 0.00 | 0.00 | 50 | 1004.1 |
| 20260505203058 | 31 | 248 | 3.2 | 14.5 | 0.00 | 0.00 | 0.00 | 58 | 1004.0 |
| 20260505201514 | 31 | 212 | 4.8 | 11.3 | 0.00 | 0.00 | 0.00 | 58 | 1004.1 |
| 20260505200039 | 31 | 192 | 1.6 | 11.3 | 0.00 | 0.00 | 0.00 | 59 | 1004.4 |
| 20260505194609 | 31 | 225 | 3.2 | 14.5 | 0.00 | 0.00 | 0.00 | 60 | 1004.2 |
| 20260505193024 | 31 | 242 | 3.2 | 14.5 | 0.00 | 0.00 | 0.00 | 60 | 1004.3 |
| 20260505191545 | 31 | 130 | 1.6 | 14.5 | 0.00 | 0.00 | 0.00 | 63 | 1004.1 |
| 20260505190100 | 30 | 144 | 6.4 | 12.9 | 0.00 | 0.00 | 0.00 | 62 | 1004.2 |
| 20260505190003 | 30 | 218 | 6.4 | 12.9 | 0.00 | 0.00 | 0.00 | 62 | 1004.2 |
| 20260505184534 | 29 | 207 | 4.8 | 14.5 | 0.00 | 0.00 | 0.00 | 65 | 1004.0 |
| 20260505183047 | 28 | 178 | 4.8 | 20.9 | 0.00 | 0.00 | 0.00 | 63 | 1004.4 |
| 20260505181520 | 28 | 174 | 6.4 | 16.1 | 0.00 | 0.00 | 0.00 | 64 | 1004.4 |
| 20260505180042 | 29 | 183 | 4.8 | 19.3 | 0.00 | 0.00 | 0.00 | 64 | 1004.6 |
| 20260505174514 | 29 | 213 | 4.8 | 12.9 | 0.00 | 0.00 | 0.00 | 65 | 1004.4 |
| 20260505173046 | 28 | 155 | 4.8 | 16.1 | 0.00 | 0.00 | 0.00 | 68 | 1004.3 |
| 20260505171524 | 27 | 182 | 8.0 | 16.1 | 0.00 | 0.00 | 0.00 | 69 | 1004.4 |
| 20260505170055 | 27 | 192 | 4.8 | 11.3 | 0.00 | 0.00 | 0.00 | 70 | 1004.4 |
| 20260505164534 | 26 | 190 | 6.4 | 16.1 | 0.00 | 0.00 | 0.00 | 72 | 1004.4 |
| 20260505163056 | 26 | 144 | 4.8 | 14.5 | 0.00 | 0.00 | 0.00 | 73 | 1004.3 |
| 20260505161522 | 25 | 207 | 6.4 | 16.1 | 0.00 | 0.00 | 0.00 | 74 | 1004.2 |
| 20260505153032 | 25 | 167 | 4.8 | 14.5 | 0.00 | 0.00 | 0.00 | 76 | 1004.1 |
| 20260505151506 | 24 | 215 | 3.2 | 19.3 | 0.00 | 0.00 | 0.00 | 76 | 1004.0 |
| 20260505130104 | 21 | 360 | 6.4 | 19.3 | 0.00 | 0.00 | 0.00 | 86 | 1003.6 |
| 20260505124515 | 21 | 360 | 6.4 | 19.3 | 0.00 | 0.00 | 0.00 | 87 | 1003.4 |
| 20260505123033 | 21 | 360 | 4.8 | 19.3 | 0.00 | 0.00 | 0.00 | 87 | 1003.1 |
| 20260505121509 | 20 | 360 | 6.4 | 14.5 | 0.00 | 0.00 | 0.00 | 87 | 1003.2 |
| 20260505120037 | 20 | 360 | 4.8 | 14.5 | 0.00 | 0.00 | 0.00 | 87 | 1003.1 |
| 20260505114553 | 20 | 360 | 4.8 | 17.7 | 0.00 | 0.00 | 0.00 | 87 | 1003.0 |
| 20260505113013 | 20 | 360 | 4.8 | 14.5 | 0.00 | 0.00 | 0.00 | 87 | 1002.9 |
| 20260505111553 | 20 | 360 | 6.4 | 14.5 | 0.00 | 0.00 | 0.00 | 87 | 1002.9 |
| 20260505101523 | 21 | 360 | 4.8 | 16.1 | 0.00 | 0.00 | 0.00 | 85 | 1003.2 |
| 20260505100057 | 21 | 360 | 6.4 | 16.1 | 0.00 | 0.00 | 0.00 | 85 | 1002.9 |
| 20260505094541 | 21 | 360 | 6.4 | 19.3 | 0.00 | 0.00 | 0.00 | 84 | 1003.0 |
| 20260505093051 | 21 | 360 | 8.0 | 22.5 | 0.00 | 0.00 | 0.00 | 83 | 1002.8 |
| 20260505091531 | 21 | 360 | 8.0 | 20.9 | 0.00 | 0.00 | 0.00 | 83 | 1003.2 |
| 20260505090043 | 21 | 360 | 8.0 | 22.5 | 0.00 | 0.00 | 0.00 | 82 | 1003.4 |
| 20260505084520 | 22 | 360 | 8.0 | 22.5 | 0.00 | 0.00 | 0.00 | 81 | 1003.4 |
| 20260505083031 | 22 | 360 | 6.4 | 17.7 | 0.00 | 0.00 | 0.00 | 80 | 1003.5 |
| 20260505081550 | 22 | 360 | 8.0 | 22.5 | 0.00 | 0.00 | 0.00 | 79 | 1003.4 |
| 20260505080020 | 22 | 360 | 6.4 | 22.5 | 0.00 | 0.00 | 0.00 | 77 | 1003.6 |
| 20260505074538 | 22 | 360 | 9.7 | 19.3 | 0.00 | 0.00 | 0.00 | 76 | 1003.7 |
| 20260505073057 | 22 | 360 | 9.7 | 22.5 | 0.00 | 0.00 | 0.00 | 76 | 1004.0 |
| 20260505071547 | 22 | 360 | 8.0 | 22.5 | 0.00 | 0.00 | 0.00 | 75 | 1004.3 |
| 20260505070047 | 23 | 360 | 8.0 | 20.9 | 0.00 | 0.00 | 0.00 | 74 | 1004.3 |
| 20260505064525 | 23 | 360 | 9.7 | 20.9 | 0.00 | 0.00 | 0.00 | 74 | 1004.6 |
| 20260505063038 | 23 | 360 | 11.3 | 22.5 | 0.00 | 0.00 | 0.00 | 73 | 1004.8 |
| 20260505061511 | 23 | 360 | 8.0 | 20.9 | 0.00 | 0.00 | 0.00 | 72 | 1004.7 |
| 20260505060032 | 23 | 360 | 6.4 | 16.1 | 0.00 | 0.00 | 0.00 | 72 | 1004.8 |
| 20260505054550 | 23 | 360 | 8.0 | 19.3 | 0.00 | 0.00 | 0.00 | 72 | 1004.9 |
| 20260505053012 | 23 | 360 | 6.4 | 16.1 | 0.00 | 0.00 | 0.00 | 72 | 1004.9 |
| 20260505051538 | 23 | 360 | 9.7 | 19.3 | 0.00 | 0.00 | 0.00 | 72 | 1004.9 |
| 20260505041549 | 23 | 360 | 8.0 | 16.1 | 0.00 | 0.00 | 0.00 | 73 | 1005.2 |
| 20260505040021 | 23 | 360 | 9.7 | 17.7 | 0.00 | 0.00 | 0.00 | 73 | 1005.2 |
| 20260505034532 | 23 | 360 | 8.0 | 20.9 | 0.00 | 0.00 | 0.00 | 72 | 1005.2 |
| 20260505033048 | 23 | 360 | 8.0 | 19.3 | 0.00 | 0.00 | 0.00 | 72 | 1005.2 |
| 20260505031600 | 23 | 360 | 6.4 | 20.9 | 0.00 | 0.00 | 0.00 | 72 | 1005.1 |
| 20260505031502 | 23 | 360 | 8.0 | 20.9 | 0.00 | 0.00 | 0.00 | 72 | 1005.1 |
| 20260505030038 | 23 | 360 | 8.0 | 17.7 | 0.00 | 0.00 | 0.00 | 72 | 1005.2 |
| 20260505024549 | 23 | 360 | 9.7 | 22.5 | 0.00 | 0.00 | 0.00 | 72 | 1005.2 |
| 20260505023025 | 23 | 360 | 6.4 | 20.9 | 0.00 | 0.00 | 0.00 | 72 | 1005.1 |
| 20260505021540 | 23 | 360 | 8.0 | 17.7 | 0.00 | 0.00 | 0.00 | 72 | 1005.1 |